Location: Village de las Huertas
(35.3014°N, 106.4095°W)
Time: 17:25:01
(UTC+00:00)

SL-19 R/B - Pass Details

Date: 29 October 2020
Orbit: 358 x 808 km, 99.4° (Epoch: 25 November)

Event Time Altitude Azimuth Distance (km) Brightness Sun altitude
Rises 11:59:03 0° 14° (NNE) 2,197 7.5 -18.0°
Reaches altitude 10° 12:00:56 10° 14° (NNE) 1,360 6.4 -17.6°
Maximum altitude 12:03:46 89° 315° (NW) 384 3.4 -17.1°
Drops below altitude 10° 12:06:49 10° 195° (SSW) 1,451 6.4 -16.4°
Sets 12:08:53 0° 195° (SSW) 2,364 7.5 -16.0°
